Year,Month,Day,Hour,Minute,Value (Times are PST for temperature in C)
2009,04,02,00,00,4.30
2009,04,02,00,01,4.30
2009,04,02,00,02,4.30
2009,04,02,00,03,4.30
2009,04,02,00,04,4.30
2009,04,02,00,05,4.30
2009,04,02,00,06,4.30
2009,04,02,00,07,4.30
2009,04,02,00,08,4.30
2009,04,02,00,09,4.30
2009,04,02,00,10,4.20
2009,04,02,00,11,4.20
2009,04,02,00,12,4.20
2009,04,02,01,02,3.80
2009,04,02,01,03,3.80
2009,04,02,01,04,3.80
2009,04,02,01,05,3.80
2009,04,02,01,06,3.80
2009,04,02,01,07,3.80
2009,04,02,01,08,3.80
2009,04,02,01,09,3.80
2009,04,02,01,10,3.80
2009,04,02,01,11,3.80
2009,04,02,01,12,3.80
2009,04,02,01,13,3.80
2009,04,02,01,14,3.80
2009,04,02,01,15,3.80
2009,04,02,01,16,3.80
2009,04,02,01,17,3.80
2009,04,02,01,18,3.80
2009,04,02,01,19,3.80
2009,04,02,01,20,3.80
2009,04,02,01,21,3.80
2009,04,02,01,22,3.80
2009,04,02,01,23,3.80
2009,04,02,01,24,3.80
2009,04,02,01,25,3.80
2009,04,02,01,26,3.80
2009,04,02,01,27,3.80
2009,04,02,01,28,3.70
2009,04,02,01,29,3.70
2009,04,02,01,30,3.70
2009,04,02,01,31,3.70
2009,04,02,01,32,3.70
2009,04,02,01,33,3.70
2009,04,02,01,34,3.70
2009,04,02,01,35,3.70
2009,04,02,01,36,3.70
2009,04,02,01,37,3.70
2009,04,02,01,38,3.70
2009,04,02,01,39,3.70
2009,04,02,01,40,3.70
2009,04,02,01,41,3.70
2009,04,02,01,42,3.70
2009,04,02,01,43,3.70
2009,04,02,01,44,3.70
2009,04,02,01,45,3.70
2009,04,02,01,46,3.70
2009,04,02,01,47,3.70
2009,04,02,01,48,3.70
2009,04,02,01,49,3.70
2009,04,02,01,50,3.70
2009,04,02,01,51,3.70
2009,04,02,01,52,3.70
2009,04,02,01,53,3.70
2009,04,02,01,54,3.70
2009,04,02,01,55,3.70
2009,04,02,01,56,3.70
2009,04,02,01,57,3.70
2009,04,02,01,58,3.70
2009,04,02,01,59,3.70
2009,04,02,02,00,3.70
2009,04,02,02,01,3.70
2009,04,02,02,02,3.70
2009,04,02,02,03,3.70
2009,04,02,02,04,3.70
2009,04,02,02,05,3.70
2009,04,02,02,06,3.70
2009,04,02,02,07,3.70
2009,04,02,02,08,3.70
2009,04,02,02,09,3.70
2009,04,02,02,10,3.70
2009,04,02,02,11,3.70
2009,04,02,02,12,3.70
2009,04,02,02,13,3.70
2009,04,02,02,14,3.70
2009,04,02,02,15,3.70
2009,04,02,02,16,3.70
2009,04,02,02,17,3.70
2009,04,02,02,18,3.70
2009,04,02,02,19,3.70
2009,04,02,02,20,3.70
2009,04,02,02,21,3.70
2009,04,02,02,22,3.70
2009,04,02,02,23,3.70
2009,04,02,02,24,3.70
2009,04,02,02,25,3.70
2009,04,02,02,26,3.70
2009,04,02,02,27,3.70
2009,04,02,02,28,3.70
2009,04,02,02,29,3.70
2009,04,02,02,30,3.70
2009,04,02,02,31,3.70
2009,04,02,02,32,3.80
2009,04,02,02,33,3.80
2009,04,02,02,34,3.80
2009,04,02,02,35,3.80
2009,04,02,02,36,3.80
2009,04,02,02,37,3.80
2009,04,02,02,38,3.80
2009,04,02,02,39,3.80
2009,04,02,02,40,3.70
2009,04,02,02,41,3.80
2009,04,02,02,42,3.80
2009,04,02,02,43,3.80
2009,04,02,02,44,3.80
2009,04,02,02,45,3.80
2009,04,02,02,46,3.80
2009,04,02,02,47,3.80
2009,04,02,02,48,3.70
2009,04,02,02,49,3.70
2009,04,02,02,50,3.70
2009,04,02,02,51,3.70
2009,04,02,02,52,3.70
2009,04,02,02,53,3.70
2009,04,02,02,54,3.70
2009,04,02,02,55,3.70
2009,04,02,02,56,3.70
2009,04,02,02,57,3.70
2009,04,02,02,58,3.70
2009,04,02,02,59,3.70
2009,04,02,03,00,3.70
2009,04,02,03,01,3.70
2009,04,02,03,02,3.70
2009,04,02,03,03,3.70
2009,04,02,03,04,3.70
2009,04,02,03,05,3.70
2009,04,02,03,06,3.70
2009,04,02,03,07,3.70
2009,04,02,03,08,3.70
2009,04,02,03,09,3.70
2009,04,02,03,10,3.70
2009,04,02,03,11,3.70
2009,04,02,03,12,3.70
2009,04,02,03,13,3.70
2009,04,02,03,14,3.70
2009,04,02,03,15,3.70
2009,04,02,03,16,3.70
2009,04,02,03,17,3.70
2009,04,02,03,18,3.70
2009,04,02,03,19,3.70
2009,04,02,03,20,3.70
2009,04,02,03,21,3.70
2009,04,02,03,22,3.70
2009,04,02,03,23,3.70
2009,04,02,03,24,3.70
2009,04,02,03,25,3.70
2009,04,02,03,26,3.70
2009,04,02,03,27,3.70
2009,04,02,03,28,3.70
2009,04,02,03,29,3.70
2009,04,02,03,30,3.70
2009,04,02,03,31,3.70
2009,04,02,03,32,3.70
2009,04,02,03,33,3.70
2009,04,02,03,34,3.70
2009,04,02,03,35,3.70
2009,04,02,03,36,3.70
2009,04,02,03,37,3.70
2009,04,02,03,38,3.70
2009,04,02,03,39,3.70
2009,04,02,03,40,3.70
2009,04,02,03,41,3.70
2009,04,02,03,42,3.70
2009,04,02,03,43,3.70
2009,04,02,03,44,3.70
2009,04,02,03,45,3.70
2009,04,02,03,46,3.70
2009,04,02,03,47,3.70
2009,04,02,03,48,3.70
2009,04,02,03,49,3.70
2009,04,02,03,50,3.70
2009,04,02,03,51,3.60
2009,04,02,03,52,3.60
2009,04,02,03,53,3.60
2009,04,02,03,54,3.60
2009,04,02,03,55,3.60
2009,04,02,03,56,3.60
2009,04,02,03,57,3.60
2009,04,02,03,58,3.60
2009,04,02,03,59,3.60
2009,04,02,04,00,3.60
2009,04,02,04,01,3.60
2009,04,02,04,02,3.60
2009,04,02,04,03,3.60
2009,04,02,04,04,3.60
2009,04,02,04,05,3.60
2009,04,02,04,06,3.60
2009,04,02,04,07,3.60
2009,04,02,04,08,3.60
2009,04,02,04,09,3.60
2009,04,02,04,10,3.60
2009,04,02,04,11,3.60
2009,04,02,04,12,3.60
2009,04,02,04,13,3.60
2009,04,02,04,14,3.60
2009,04,02,04,15,3.60
2009,04,02,04,16,3.60
2009,04,02,04,17,3.60
2009,04,02,04,18,3.60
2009,04,02,04,19,3.60
2009,04,02,04,20,3.50
2009,04,02,04,21,3.50
2009,04,02,04,22,3.50
2009,04,02,04,23,3.50
2009,04,02,04,24,3.50
2009,04,02,04,25,3.50
2009,04,02,04,26,3.50
2009,04,02,04,27,3.50
2009,04,02,04,28,3.50
2009,04,02,04,29,3.50
2009,04,02,04,30,3.50
2009,04,02,04,31,3.50
2009,04,02,04,32,3.50
2009,04,02,04,33,3.50
2009,04,02,04,34,3.50
2009,04,02,04,35,3.50
2009,04,02,04,36,3.50
2009,04,02,04,37,3.50
2009,04,02,04,38,3.40
2009,04,02,04,39,3.40
2009,04,02,04,40,3.40
2009,04,02,04,41,3.40
2009,04,02,04,42,3.40
2009,04,02,04,43,3.40
2009,04,02,04,44,3.40
2009,04,02,04,45,3.40
2009,04,02,04,46,3.40
2009,04,02,04,47,3.40
2009,04,02,04,48,3.40
2009,04,02,04,49,3.40
2009,04,02,04,50,3.40
2009,04,02,04,51,3.40
2009,04,02,04,52,3.40
2009,04,02,04,53,3.40
2009,04,02,04,54,3.40
2009,04,02,04,55,3.30
2009,04,02,04,56,3.30
2009,04,02,04,57,3.30
2009,04,02,04,58,3.30
2009,04,02,04,59,3.30
2009,04,02,05,00,3.30
2009,04,02,05,01,3.30
2009,04,02,05,02,3.30
2009,04,02,05,03,3.30
2009,04,02,05,04,3.30
2009,04,02,05,05,3.30
2009,04,02,05,06,3.30
2009,04,02,05,07,3.30
2009,04,02,05,08,3.30
2009,04,02,05,09,3.30
2009,04,02,05,10,3.30
2009,04,02,05,11,3.30
2009,04,02,05,12,3.30
2009,04,02,05,13,3.30
2009,04,02,05,14,3.30
2009,04,02,05,15,3.20
2009,04,02,05,16,3.20
2009,04,02,05,17,3.20
2009,04,02,05,18,3.20
2009,04,02,05,19,3.20
2009,04,02,05,20,3.20
2009,04,02,05,21,3.20
2009,04,02,05,22,3.20
2009,04,02,05,23,3.20
2009,04,02,05,24,3.20
2009,04,02,05,25,3.10
2009,04,02,05,26,3.10
2009,04,02,05,27,3.10
2009,04,02,05,28,3.10
2009,04,02,05,29,3.10
2009,04,02,05,30,3.10
2009,04,02,05,31,3.10
2009,04,02,05,32,3.10
2009,04,02,05,33,3.10
2009,04,02,05,34,3.10
2009,04,02,05,35,3.10
2009,04,02,05,36,3.10
2009,04,02,05,37,3.10
2009,04,02,05,38,3.10
2009,04,02,05,39,3.10
2009,04,02,05,40,3.10
2009,04,02,05,41,3.10
2009,04,02,05,42,3.10
2009,04,02,05,43,3.10
2009,04,02,05,44,3.10
2009,04,02,05,45,3.10
2009,04,02,05,46,3.10
2009,04,02,05,47,3.10
2009,04,02,05,48,3.00
2009,04,02,05,49,2.90
2009,04,02,05,50,2.90
2009,04,02,05,51,2.90
2009,04,02,05,52,2.90
2009,04,02,05,53,2.90
2009,04,02,05,54,2.90
2009,04,02,05,55,2.90
2009,04,02,05,56,2.90
2009,04,02,05,57,2.90
2009,04,02,05,58,2.90
2009,04,02,05,59,2.90
2009,04,02,06,00,2.90
2009,04,02,06,01,2.90
2009,04,02,06,02,2.90
2009,04,02,06,03,2.90
2009,04,02,06,04,2.90
2009,04,02,06,05,2.90
2009,04,02,06,06,2.90
2009,04,02,06,07,2.90
2009,04,02,06,08,2.90
2009,04,02,06,09,2.90
2009,04,02,06,10,2.90
2009,04,02,06,11,2.90
2009,04,02,06,12,2.90
2009,04,02,06,13,2.90
2009,04,02,06,14,2.90
2009,04,02,06,15,2.90
2009,04,02,06,16,2.90
2009,04,02,06,17,2.90
2009,04,02,06,18,2.90
2009,04,02,06,19,2.90
2009,04,02,06,20,2.90
2009,04,02,06,21,2.90
2009,04,02,06,22,2.90
2009,04,02,06,23,2.90
2009,04,02,06,24,2.90
2009,04,02,06,25,2.90
2009,04,02,06,26,2.90
2009,04,02,06,27,2.90
2009,04,02,06,28,2.90
2009,04,02,06,29,2.90
2009,04,02,06,30,2.90
2009,04,02,06,31,2.90
2009,04,02,06,32,2.90
2009,04,02,06,33,2.90
2009,04,02,06,34,2.90
2009,04,02,06,35,2.90
2009,04,02,06,36,2.90
2009,04,02,06,37,2.90
2009,04,02,06,38,2.90
2009,04,02,06,39,2.90
2009,04,02,06,40,2.90
2009,04,02,06,41,2.90
2009,04,02,06,42,2.90
2009,04,02,06,43,2.90
2009,04,02,06,44,2.80
2009,04,02,06,45,2.80
2009,04,02,06,46,2.80
2009,04,02,06,47,2.80
2009,04,02,06,48,2.80
2009,04,02,06,49,2.80
2009,04,02,06,50,2.80
2009,04,02,06,51,2.80
2009,04,02,06,52,2.80
2009,04,02,06,53,2.80
2009,04,02,06,54,2.80
2009,04,02,06,55,2.80
2009,04,02,06,56,2.80
2009,04,02,06,57,2.80
2009,04,02,06,58,2.80
2009,04,02,06,59,2.80
2009,04,02,07,00,2.80
2009,04,02,07,01,2.80
2009,04,02,07,02,2.80
2009,04,02,07,03,2.80
2009,04,02,07,04,2.80
2009,04,02,07,05,2.80
2009,04,02,07,06,2.80
2009,04,02,07,07,2.80
2009,04,02,07,08,2.80
2009,04,02,07,09,2.80
2009,04,02,07,10,2.80
2009,04,02,07,11,2.80
2009,04,02,07,12,2.80
2009,04,02,07,13,2.80
2009,04,02,07,14,2.80
2009,04,02,07,15,2.90
2009,04,02,07,16,2.90
2009,04,02,07,17,2.90
2009,04,02,07,18,2.90
2009,04,02,07,19,2.90
2009,04,02,07,20,2.90
2009,04,02,07,21,2.90
2009,04,02,07,22,2.90
2009,04,02,07,23,2.90
2009,04,02,07,24,2.90
2009,04,02,07,25,2.90
2009,04,02,07,26,2.90
2009,04,02,07,27,2.90
2009,04,02,07,28,2.90
2009,04,02,07,29,2.90
2009,04,02,07,30,2.90
2009,04,02,07,31,2.90
2009,04,02,07,32,2.90
2009,04,02,07,33,2.90
2009,04,02,07,34,2.90
2009,04,02,07,35,2.90
2009,04,02,07,36,2.90
2009,04,02,07,37,2.90
2009,04,02,07,38,2.90
2009,04,02,07,39,2.90
2009,04,02,07,40,2.90
2009,04,02,07,41,2.90
2009,04,02,07,42,2.90
2009,04,02,07,43,2.90
2009,04,02,07,44,2.90
2009,04,02,07,45,2.90
2009,04,02,07,46,2.90
2009,04,02,07,47,2.90
2009,04,02,07,48,2.90
2009,04,02,07,49,2.90
2009,04,02,07,50,2.90
2009,04,02,07,51,2.90
2009,04,02,07,52,2.90
2009,04,02,07,53,2.90
2009,04,02,07,54,2.90
2009,04,02,07,55,2.90
2009,04,02,07,56,2.90
2009,04,02,07,57,2.90
2009,04,02,07,58,2.90
2009,04,02,07,59,2.90
2009,04,02,08,00,2.90
2009,04,02,08,01,2.90
2009,04,02,08,02,2.90
2009,04,02,08,03,2.90
2009,04,02,08,04,2.90
2009,04,02,08,05,2.90
2009,04,02,08,06,2.90
2009,04,02,08,07,2.90
2009,04,02,08,08,2.90
2009,04,02,08,09,2.90
2009,04,02,08,10,2.90
2009,04,02,08,11,2.90
2009,04,02,08,12,2.90
2009,04,02,08,13,2.90
2009,04,02,08,14,3.00
2009,04,02,08,15,2.90
2009,04,02,08,16,2.90
2009,04,02,08,17,2.90
2009,04,02,08,18,2.90
2009,04,02,08,19,2.90
2009,04,02,08,20,2.90
2009,04,02,08,21,2.90
2009,04,02,08,22,2.90
2009,04,02,08,23,2.90
2009,04,02,08,24,2.90
2009,04,02,08,25,2.90
2009,04,02,08,26,2.90
2009,04,02,08,27,2.90
2009,04,02,08,28,2.90
2009,04,02,08,29,2.90
2009,04,02,08,30,2.90
2009,04,02,08,31,2.90
2009,04,02,08,32,2.90
2009,04,02,08,33,3.00
2009,04,02,08,34,3.10
2009,04,02,08,35,3.10
2009,04,02,08,36,3.10
2009,04,02,08,37,3.10
2009,04,02,08,38,3.10
2009,04,02,08,39,3.10
2009,04,02,08,40,3.20
2009,04,02,08,41,3.20
2009,04,02,08,42,3.20
2009,04,02,08,43,3.30
2009,04,02,08,44,3.30
2009,04,02,08,45,3.30
2009,04,02,08,46,3.40
2009,04,02,08,47,3.50
2009,04,02,08,48,3.60
2009,04,02,08,49,3.70
2009,04,02,08,50,3.80
2009,04,02,08,51,3.90
2009,04,02,08,52,4.00
2009,04,02,08,53,4.00
2009,04,02,08,54,4.20
2009,04,02,08,55,4.20
2009,04,02,08,56,4.20
2009,04,02,08,57,4.20
2009,04,02,08,58,4.30
2009,04,02,08,59,4.40
2009,04,02,09,00,4.40
2009,04,02,09,01,4.40
2009,04,02,09,02,4.40
2009,04,02,09,03,4.30
2009,04,02,09,04,4.30
2009,04,02,09,05,4.30
2009,04,02,09,06,4.30
2009,04,02,09,07,4.40
2009,04,02,09,08,4.30
2009,04,02,09,09,4.30
2009,04,02,09,10,4.40
2009,04,02,09,11,4.50
2009,04,02,09,12,4.60
2009,04,02,09,13,4.60
2009,04,02,09,14,4.60
2009,04,02,09,15,4.60
2009,04,02,09,16,4.70
2009,04,02,09,17,4.70
2009,04,02,09,18,4.70
2009,04,02,09,19,4.70
2009,04,02,09,20,4.70
2009,04,02,09,21,4.70
2009,04,02,09,22,4.70
2009,04,02,09,23,4.70
2009,04,02,09,24,4.70
2009,04,02,09,25,4.70
2009,04,02,09,26,4.70
2009,04,02,09,27,4.60
2009,04,02,09,28,4.60
2009,04,02,09,29,4.60
2009,04,02,09,30,4.60
2009,04,02,09,31,4.60
2009,04,02,09,32,4.60
2009,04,02,09,33,4.60
2009,04,02,09,34,4.60
2009,04,02,09,35,4.60
2009,04,02,09,36,4.60
2009,04,02,09,37,4.60
2009,04,02,09,38,4.60
2009,04,02,09,39,4.60
2009,04,02,09,40,4.60
2009,04,02,09,41,4.60
2009,04,02,09,42,4.50
2009,04,02,09,43,4.50
2009,04,02,09,44,4.40
2009,04,02,09,45,4.40
2009,04,02,09,46,4.40
2009,04,02,09,47,4.40
2009,04,02,09,48,4.40
2009,04,02,09,49,4.30
2009,04,02,09,50,4.30
2009,04,02,09,51,4.30
2009,04,02,09,52,4.30
2009,04,02,09,53,4.40
2009,04,02,09,54,4.40
2009,04,02,09,55,4.40
2009,04,02,09,56,4.50
2009,04,02,09,57,4.50
2009,04,02,09,58,4.50
2009,04,02,09,59,4.50
2009,04,02,10,00,4.50
2009,04,02,10,01,4.50
2009,04,02,10,02,4.50
2009,04,02,10,03,4.50
2009,04,02,10,04,4.50
2009,04,02,10,05,4.50
2009,04,02,10,06,4.60
2009,04,02,10,07,4.60
2009,04,02,10,08,4.60
2009,04,02,10,09,4.60
2009,04,02,10,10,4.60
2009,04,02,10,11,4.70
2009,04,02,10,12,4.70
2009,04,02,10,13,4.80
2009,04,02,10,14,4.80
2009,04,02,10,15,4.80
2009,04,02,10,16,4.80
2009,04,02,10,17,4.80
2009,04,02,10,18,4.80
2009,04,02,10,19,4.80
2009,04,02,10,20,4.80
2009,04,02,10,21,4.80
2009,04,02,10,22,4.80
2009,04,02,10,23,4.80
2009,04,02,10,24,4.80
2009,04,02,10,25,4.80
2009,04,02,10,26,4.80
2009,04,02,10,27,4.70
2009,04,02,10,28,4.70
2009,04,02,10,29,4.70
2009,04,02,10,30,4.70
2009,04,02,10,31,4.80
2009,04,02,10,32,4.80
2009,04,02,10,33,4.80
2009,04,02,10,34,4.80
2009,04,02,10,35,4.80
2009,04,02,10,36,4.80
2009,04,02,10,37,4.80
2009,04,02,10,38,4.80
2009,04,02,10,39,4.90
2009,04,02,10,40,4.90
2009,04,02,10,41,4.90
2009,04,02,10,42,5.00
2009,04,02,10,43,5.10
2009,04,02,10,44,5.10
2009,04,02,10,45,5.10
2009,04,02,10,46,5.10
2009,04,02,10,47,5.10
2009,04,02,10,48,5.10
2009,04,02,10,49,5.10
2009,04,02,10,50,5.10
2009,04,02,10,51,5.20
2009,04,02,10,52,5.20
2009,04,02,10,53,5.20
2009,04,02,10,54,5.20
2009,04,02,10,55,5.20
2009,04,02,10,56,5.10
2009,04,02,10,57,5.10
2009,04,02,10,58,5.20
2009,04,02,10,59,5.20
2009,04,02,11,00,5.20
2009,04,02,11,01,5.10
2009,04,02,11,02,5.10
2009,04,02,11,03,5.10
2009,04,02,11,04,5.10
2009,04,02,11,05,5.10
2009,04,02,11,06,5.10
2009,04,02,11,07,5.20
2009,04,02,11,08,5.20
2009,04,02,11,09,5.30
2009,04,02,11,10,5.30
2009,04,02,11,11,5.30
2009,04,02,11,12,5.30
2009,04,02,11,13,5.30
2009,04,02,11,14,5.40
2009,04,02,11,15,5.50
2009,04,02,11,16,5.60
2009,04,02,11,17,5.70
2009,04,02,11,18,5.70
2009,04,02,11,19,5.80
2009,04,02,11,20,5.80
2009,04,02,11,21,5.80
2009,04,02,11,22,5.80
2009,04,02,11,23,5.70
2009,04,02,11,24,5.70
2009,04,02,11,25,5.70
2009,04,02,11,26,5.90
2009,04,02,11,27,6.00
2009,04,02,11,28,6.00
2009,04,02,11,29,6.00
2009,04,02,11,30,6.10
2009,04,02,11,31,6.10
2009,04,02,11,32,6.10
2009,04,02,11,33,6.20
2009,04,02,11,34,6.20
2009,04,02,11,35,6.10
2009,04,02,11,36,6.10
2009,04,02,11,37,6.00
2009,04,02,11,38,6.00
2009,04,02,11,39,5.90
2009,04,02,11,40,5.90
2009,04,02,11,41,5.90
2009,04,02,11,42,5.90
2009,04,02,11,43,5.80
2009,04,02,11,44,5.80
2009,04,02,11,45,5.70
2009,04,02,11,46,5.70
2009,04,02,11,47,5.70
2009,04,02,11,48,5.70
2009,04,02,11,49,5.70
2009,04,02,11,50,5.70
2009,04,02,11,51,5.70
2009,04,02,11,52,5.70
2009,04,02,11,53,5.70
2009,04,02,11,54,5.70
2009,04,02,11,55,5.70
2009,04,02,11,56,5.80
2009,04,02,11,57,5.80
2009,04,02,11,58,5.80
2009,04,02,11,59,5.80
2009,04,02,12,00,5.80
2009,04,02,12,01,5.80
2009,04,02,12,02,5.80
2009,04,02,12,03,5.80
2009,04,02,12,04,5.80
2009,04,02,12,05,5.80
2009,04,02,12,06,5.80
2009,04,02,12,07,5.80
2009,04,02,12,08,5.90
2009,04,02,12,09,5.80
2009,04,02,12,10,5.80
2009,04,02,12,11,5.80
2009,04,02,12,12,5.80
2009,04,02,12,13,5.80
2009,04,02,12,14,5.80
2009,04,02,12,15,5.80
2009,04,02,12,16,5.80
2009,04,02,12,17,5.80
2009,04,02,12,18,5.80
2009,04,02,12,19,5.80
2009,04,02,12,20,5.80
2009,04,02,12,21,5.90
2009,04,02,12,22,5.90
2009,04,02,12,23,5.90
2009,04,02,12,24,5.90
2009,04,02,12,25,5.90
2009,04,02,12,26,5.90
2009,04,02,12,27,5.90
2009,04,02,12,28,5.90
2009,04,02,12,29,5.90
2009,04,02,12,30,5.90
2009,04,02,12,31,6.00
2009,04,02,12,32,6.00
2009,04,02,12,33,6.00
2009,04,02,12,34,6.00
2009,04,02,12,35,6.10
2009,04,02,12,36,6.10
2009,04,02,12,37,6.20
2009,04,02,12,38,6.20
2009,04,02,12,39,6.20
2009,04,02,12,40,6.20
2009,04,02,12,41,6.20
2009,04,02,12,42,6.30
2009,04,02,12,43,6.30
2009,04,02,12,44,6.30
2009,04,02,12,45,6.40
2009,04,02,12,46,6.40
2009,04,02,12,47,6.40
2009,04,02,12,48,6.40
2009,04,02,12,49,6.40
2009,04,02,12,50,6.30
2009,04,02,12,51,6.30
2009,04,02,12,52,6.30
2009,04,02,12,53,6.30
2009,04,02,12,54,6.30
2009,04,02,12,55,6.40
2009,04,02,12,56,6.40
2009,04,02,12,57,6.40
2009,04,02,12,58,6.30
2009,04,02,12,59,6.30
2009,04,02,13,00,6.30
2009,04,02,13,01,6.20
2009,04,02,13,02,6.20
2009,04,02,13,03,6.20
2009,04,02,13,04,6.30
2009,04,02,13,05,6.30
2009,04,02,13,06,6.40
2009,04,02,13,07,6.40
2009,04,02,13,08,6.40
2009,04,02,13,09,6.40
2009,04,02,13,10,6.40
2009,04,02,13,11,6.40
2009,04,02,13,12,6.40
2009,04,02,13,13,6.40
2009,04,02,13,14,6.40
2009,04,02,13,15,6.40
2009,04,02,13,16,6.40
2009,04,02,13,17,6.40
2009,04,02,13,18,6.40
2009,04,02,13,19,6.40
2009,04,02,13,20,6.40
2009,04,02,13,21,6.40
2009,04,02,13,22,6.40
2009,04,02,13,23,6.40
2009,04,02,13,24,6.40
2009,04,02,13,25,6.40
2009,04,02,13,26,6.40
2009,04,02,13,27,6.40
2009,04,02,13,28,6.40
2009,04,02,13,29,6.40
2009,04,02,13,30,6.40
2009,04,02,13,31,6.40
2009,04,02,13,32,6.40
2009,04,02,13,33,6.40
2009,04,02,13,34,6.40
2009,04,02,13,35,6.40
2009,04,02,13,36,6.40
2009,04,02,13,37,6.40
2009,04,02,13,38,6.40
2009,04,02,13,39,6.60
2009,04,02,13,40,6.60
2009,04,02,13,41,6.60
2009,04,02,13,42,6.60
2009,04,02,13,43,6.60
2009,04,02,13,44,6.60
2009,04,02,13,45,6.60
2009,04,02,13,46,6.70
2009,04,02,13,47,6.70
2009,04,02,13,48,6.70
2009,04,02,13,49,6.60
2009,04,02,13,50,6.60
2009,04,02,13,51,6.60
2009,04,02,13,52,6.60
2009,04,02,13,53,6.70
2009,04,02,13,54,6.70
2009,04,02,13,55,6.70
2009,04,02,13,56,6.70
2009,04,02,13,57,6.60
2009,04,02,13,58,6.60
2009,04,02,13,59,6.60
2009,04,02,14,00,6.70
2009,04,02,14,01,6.70
2009,04,02,14,02,6.70
2009,04,02,14,03,6.70
2009,04,02,14,04,6.60
2009,04,02,14,05,6.60
2009,04,02,14,06,6.60
2009,04,02,14,07,6.60
2009,04,02,14,08,6.60
2009,04,02,14,09,6.60
2009,04,02,14,10,6.60
2009,04,02,14,11,6.60
2009,04,02,14,12,6.60
2009,04,02,14,13,6.60
2009,04,02,14,14,6.60
2009,04,02,14,15,6.60
2009,04,02,14,16,6.60
2009,04,02,14,17,6.60
2009,04,02,14,18,6.60
2009,04,02,14,19,6.60
2009,04,02,14,20,6.60
2009,04,02,14,21,6.60
2009,04,02,14,22,6.60
2009,04,02,14,23,6.70
2009,04,02,14,24,6.80
2009,04,02,14,25,7.00
2009,04,02,14,26,7.10
2009,04,02,14,27,7.20
2009,04,02,14,28,7.20
2009,04,02,14,29,7.20
2009,04,02,14,30,7.20
2009,04,02,14,31,7.30
2009,04,02,14,32,7.30
2009,04,02,14,33,7.20
2009,04,02,14,34,7.20
2009,04,02,14,35,7.20
2009,04,02,14,36,7.20
2009,04,02,14,37,7.20
2009,04,02,14,38,7.30
2009,04,02,14,39,7.20
2009,04,02,14,40,7.20
2009,04,02,14,41,7.20
2009,04,02,14,42,7.20
2009,04,02,14,43,7.20
2009,04,02,14,44,7.20
2009,04,02,14,45,7.20
2009,04,02,14,46,7.20
2009,04,02,14,47,7.20
2009,04,02,14,48,7.20
2009,04,02,14,49,7.30
2009,04,02,14,50,7.30
2009,04,02,14,51,7.30
2009,04,02,14,52,7.30
2009,04,02,14,53,7.30
2009,04,02,14,54,7.40
2009,04,02,14,55,7.50
2009,04,02,14,56,7.60
2009,04,02,14,57,7.60
2009,04,02,14,58,7.70
2009,04,02,14,59,7.70
2009,04,02,15,00,7.80
2009,04,02,15,01,7.80
2009,04,02,15,02,7.90
2009,04,02,15,03,8.00
2009,04,02,15,04,8.10
2009,04,02,15,05,8.20
2009,04,02,15,06,8.20
2009,04,02,15,07,8.20
2009,04,02,15,08,8.40
2009,04,02,15,09,8.50
2009,04,02,15,10,8.70
2009,04,02,15,11,8.70
2009,04,02,15,12,8.80
2009,04,02,15,13,8.80
2009,04,02,15,14,8.80
2009,04,02,15,15,8.90
2009,04,02,15,16,8.90
2009,04,02,15,17,9.00
2009,04,02,15,18,9.00
2009,04,02,15,19,9.00
2009,04,02,15,20,9.00
2009,04,02,15,21,9.00
2009,04,02,15,22,9.00
2009,04,02,15,23,8.90
2009,04,02,15,24,9.00
2009,04,02,15,25,9.10
2009,04,02,15,26,9.20
2009,04,02,15,27,9.20
2009,04,02,15,28,9.20
2009,04,02,15,29,9.20
2009,04,02,15,30,9.20
2009,04,02,15,31,9.20
2009,04,02,15,32,9.20
2009,04,02,15,33,9.20
2009,04,02,15,34,9.10
2009,04,02,15,35,9.10
2009,04,02,15,36,9.10
2009,04,02,15,37,9.10
2009,04,02,15,38,9.00
2009,04,02,15,39,9.00
2009,04,02,15,40,8.90
2009,04,02,15,41,8.80
2009,04,02,15,42,8.70
2009,04,02,15,43,8.70
2009,04,02,15,44,8.60
2009,04,02,15,45,8.60
2009,04,02,15,46,8.50
2009,04,02,15,47,8.50
2009,04,02,15,48,8.40
2009,04,02,15,49,8.40
2009,04,02,15,50,8.30
2009,04,02,15,51,8.30
2009,04,02,15,52,8.30
2009,04,02,15,53,8.20
2009,04,02,15,54,8.20
2009,04,02,15,55,8.20
2009,04,02,15,56,8.20
2009,04,02,15,57,8.20
2009,04,02,15,58,8.20
2009,04,02,15,59,8.30
2009,04,02,16,00,8.40
2009,04,02,16,01,8.40
2009,04,02,16,02,8.40
2009,04,02,16,03,8.40
2009,04,02,16,04,8.50
2009,04,02,16,05,8.50
2009,04,02,16,06,8.50
2009,04,02,16,07,8.50
2009,04,02,16,08,8.60
2009,04,02,16,09,8.60
2009,04,02,16,10,8.60
2009,04,02,16,11,8.60
2009,04,02,16,12,8.70
2009,04,02,16,13,8.70
2009,04,02,16,14,8.70
2009,04,02,16,15,8.70
2009,04,02,16,16,8.70
2009,04,02,16,17,8.80
2009,04,02,16,18,8.80
2009,04,02,16,19,8.90
2009,04,02,16,20,8.90
2009,04,02,16,21,8.90
2009,04,02,16,22,9.00
2009,04,02,16,23,9.00
2009,04,02,16,24,9.00
2009,04,02,16,25,9.00
2009,04,02,16,26,9.00
2009,04,02,16,27,9.00
2009,04,02,16,28,9.00
2009,04,02,16,29,8.90
2009,04,02,16,30,9.00
2009,04,02,16,31,9.10
2009,04,02,16,32,9.10
2009,04,02,16,33,9.10
2009,04,02,16,34,9.00
2009,04,02,16,35,9.00
2009,04,02,16,36,9.00
2009,04,02,16,37,9.00
2009,04,02,16,38,9.00
2009,04,02,16,39,9.00
2009,04,02,16,40,9.00
2009,04,02,16,41,8.90
2009,04,02,16,42,8.90
2009,04,02,16,43,8.90
2009,04,02,16,44,8.90
2009,04,02,16,45,8.90
2009,04,02,16,46,8.90
2009,04,02,16,47,8.90
2009,04,02,16,48,8.80
2009,04,02,16,49,8.70
2009,04,02,16,50,8.70
2009,04,02,16,51,8.70
2009,04,02,16,52,8.60
2009,04,02,16,53,8.50
2009,04,02,16,54,8.50
2009,04,02,16,55,8.40
2009,04,02,16,56,8.40
2009,04,02,16,57,8.40
2009,04,02,16,58,8.40
2009,04,02,16,59,8.40
2009,04,02,17,00,8.40
2009,04,02,17,01,8.40
2009,04,02,17,02,8.40
2009,04,02,17,03,8.40
2009,04,02,17,04,8.40
2009,04,02,17,05,8.40
2009,04,02,17,06,8.50
2009,04,02,17,07,8.50
2009,04,02,17,08,8.60
2009,04,02,17,09,8.60
2009,04,02,17,10,8.60
2009,04,02,17,11,8.50
2009,04,02,17,12,8.50
2009,04,02,17,13,8.40
2009,04,02,17,14,8.30
2009,04,02,17,15,8.20
2009,04,02,17,16,8.20
2009,04,02,17,17,8.20
2009,04,02,17,18,8.20
2009,04,02,17,19,8.20
2009,04,02,17,20,8.20
2009,04,02,17,21,8.20
2009,04,02,17,22,8.10
2009,04,02,17,23,8.10
2009,04,02,17,24,8.10
2009,04,02,17,25,8.10
2009,04,02,17,26,8.10
2009,04,02,17,27,8.10
2009,04,02,17,28,8.00
2009,04,02,17,29,8.00
2009,04,02,17,30,8.00
2009,04,02,17,31,8.00
2009,04,02,17,32,8.00
2009,04,02,17,33,8.00
2009,04,02,17,34,7.90
2009,04,02,17,35,7.90
2009,04,02,17,36,7.90
2009,04,02,17,37,7.80
2009,04,02,17,38,7.80
2009,04,02,17,39,7.80
2009,04,02,17,40,7.70
2009,04,02,17,41,7.70
2009,04,02,17,42,7.60
2009,04,02,17,43,7.60
2009,04,02,17,44,7.50
2009,04,02,17,45,7.50
2009,04,02,17,46,7.50
2009,04,02,17,47,7.40
2009,04,02,17,48,7.40
2009,04,02,17,49,7.40
2009,04,02,17,50,7.40
2009,04,02,17,51,7.30
2009,04,02,17,52,7.20
2009,04,02,17,53,7.20
2009,04,02,17,54,7.10
2009,04,02,17,55,7.00
2009,04,02,17,56,7.00
2009,04,02,17,57,6.90
2009,04,02,17,58,6.90
2009,04,02,17,59,6.90
2009,04,02,18,00,6.80
2009,04,02,18,01,6.80
2009,04,02,18,02,6.80
2009,04,02,18,03,6.80
2009,04,02,18,04,6.80
2009,04,02,18,05,6.80
2009,04,02,18,06,6.80
2009,04,02,18,07,6.80
2009,04,02,18,08,6.80
2009,04,02,18,09,6.80
2009,04,02,18,10,6.80
2009,04,02,18,11,6.80
2009,04,02,18,12,6.80
2009,04,02,18,13,6.80
2009,04,02,18,14,6.80
2009,04,02,18,15,6.70
2009,04,02,18,16,6.70
2009,04,02,18,17,6.60
2009,04,02,18,18,6.60
2009,04,02,18,19,6.60
2009,04,02,18,20,6.50
2009,04,02,18,21,6.40
2009,04,02,18,22,6.40
2009,04,02,18,23,6.40
2009,04,02,18,24,6.40
2009,04,02,18,25,6.40
2009,04,02,18,26,6.40
2009,04,02,18,27,6.40
2009,04,02,18,28,6.40
2009,04,02,18,29,6.40
2009,04,02,18,30,6.40
2009,04,02,18,31,6.40
2009,04,02,18,32,6.40
2009,04,02,18,33,6.40
2009,04,02,18,34,6.40
2009,04,02,18,35,6.30
2009,04,02,18,36,6.30
2009,04,02,18,37,6.30
2009,04,02,18,38,6.30
2009,04,02,18,39,6.30
2009,04,02,18,40,6.30
2009,04,02,18,41,6.30
2009,04,02,18,42,6.30
2009,04,02,18,43,6.30
2009,04,02,18,44,6.30
2009,04,02,18,45,6.30
2009,04,02,18,46,6.30
2009,04,02,18,47,6.20
2009,04,02,18,48,6.20
2009,04,02,18,49,6.20
2009,04,02,18,50,6.20
2009,04,02,18,51,6.20
2009,04,02,18,52,6.20
2009,04,02,18,53,6.20
2009,04,02,18,54,6.20
2009,04,02,18,55,6.20